Tracking 18980 objects as of 22-Feb-2018
HD Live streaming from Space Station
objects crossing your sky now

FENGYUN 1C DEB

Track FENGYUN 1C DEB now!
10-day predictions


NORAD ID: 31157
Int'l Code: 1999-025BHK
Perigee: 759.7 km
Apogee: 908.5 km
Inclination: 98.6 °
Period: 101.4 minutes
Semi major axis: 7205 km
RCS: 0.0193 m2 (small)
Launch date: May 10, 1999
Source: People's Republic of China (PRC)
Launch site: Taiyaun Space Center, China (TSC)

Note: This is SATELLITE DEBRIS
aabbcc
Your satellite tracking list
Your tracking list is empty




NASA's NSSDC Master Catalog

Two Line Element Set (TLE):
1 31157U 99025BHK 18051.39744596 +.00000108 +00000-0 +68128-4 0  9992
2 31157 098.6458 107.5227 0103225 320.3132 102.3366 14.19528616564920
Source of the keplerian elements: AFSPC